User: anonymous   Login
Location: Unspecified
(34.4500°N, 0.0000°E)
Time: 16:07:04
(UTC+00:00)
Language:

LO-87 - Orbit

View from above orbital plane
View from above orbital plane
View from above satellite
View from above satellite

Ground track
Ground track

The orbit data is extracted from the following two-line orbital elements,

1 41557U 16033B   21134.23685029  .00003050  00000-0  10968-3 0  9996
2 41557  97.3911 228.3718 0012583   4.8091  47.3317 15.29326448276303
Epoch (UTC): 14 May 2021 05:41:03
Eccentricity: 0.0012583
inclination: 97.3911°
perigee height: 469 km
apogee height: 486 km
right ascension of ascending node: 228.3718°
argument of perigee: 4.8091°
revolutions per day: 15.29326448
mean anomaly at epoch: 47.3317°
orbit number at epoch: 27630

The dashed part of the orbit path shows where the satellite is in the earth's shadow,  

DLR